SCP
0 0 0 0 0 0 0 0 0 0 0 0 0 0 0 0 0 0 0 0 0 0 0 0 0 0 0 0 0 0 0 0 0 0 0 0 0 0 0 0 0 0 0
0 0 0 0 0 0 0 0 0 0 0 0 0 0 0 0 0 0 0 0 0 0 0 0 0 0 0 0 0 0 0 0 0 0 0 0 0 0 0 0 0 0 0
0 0 0 0 0 0 0 0 0 0 0 0 0 0 0 0 0 0 0 0 0 0 0 0 0 0 0 0 0 0 0 0 0 0 0 0 0 0 0 0 0 0 0
0 0 0 0 0 0 0 0 0 0 0 0 0 0 0 0 0 0 0 0 0 0 0 0 0 0 0 0 0 0 0 0 0 0 0 0 0 0 0 0 0 0 0
0 0 0 0 0 0 0 0 0 0 0 0 0 0 0 0 0 0 0 0 0 0 0 0 0 0 0 0 0 0 0 0 0 0 0 0 0 0 0 0 0 0 0
0 0 0 0 0 0 0 0 0 0 0 0 0 0 0 0 0 0 0 0 0 0 0 0 0 0 0 0 0 0 0 0 0 0 0 0 0 0 0 0 0 0 0
0 0 0 0 0 0 0 0 0 0 0 0 0 0 0 0 0 0 0 0 0 0 0 0 0 0 0 0 0 0 0 0 0 0 0 0 0 0 0 0 0 0 0
0 0 0 0 0 0 0 0 0 0 0 0 0 0 0 0 0 0 0 0 0 0 0 0 0 0 0 0 0 0 0 0 0 0 0 0 0 0 0 0 0 0 0
0 0 0 0 0 0 0 0 0 0 0 0 0 0 0 0 0 0 0 0 0 0 0 0 0 0 0 0 0 0 0 0 0 0 0 0 0 0 0 0 0 0 0
0 0 0 0 0 0 0 0 0 0 0 0 0 0 0 0 0 0 0 0 0 0 0 0 0 0 0 0 0 0 0 0 0 0 0 0 0 0 0 0 0 0 0
0 0 0 0 0 0 0 0 0 0 0 0 0 0 0 0 0 0 0 0 0 0 0 0 0 0 0 0 0 0 0 0 0 0 0 0 0 0 0 0 0 0 0
0 0 0 0 0 0 0 0 0 0 0 0 0 0 0 0 0 0 0 0 0 0 0 0 0 0 0 0 0 0 0 0 0 0 0 0 0 0 0 0 0 0 0
0 0 0 0 0 0 0 0 0 0 0 0 0 0 0 0 0 0 0 0 0 0 0 0 0 0 0 0 0 0 0 0 0 0 0 0 0 0 0 0 0 0 0
0 0 0 0 0 0 0 0 0 0 0 0 0 0 0 0 0 0 0 0 0 0 0 0 0 0 0 0 0 0 0 0 0 0 0 0 0 0 0 0 0 0 0
0 0 0 0 0 0 0 0 0 0 0 0 0 0 0 0 0 0 0 0 0 0 0 0 0 0 0 0 0 0 0 0 0 0 0 0 0 0 0 0 0 0 0
0 0 0 0 0 0 0 0 0 0 0 0 0 0 0 0 0 0 0 0 0 0 0 0 0 0 0 0 0 0 0 0 0 0 0 0 0 0 0 0 0 0 0
0 0 0 0 0 0 0 0 0 0 0 0 0 0 0 0 0 0 0 0 0 0 0 0 0 0 0 0 0 0 0 0 0 0 0 0 0 0 0 0 0 0 0
0 0 0 0 0 0 0 0 0 0 0 0 0 0 0 0 0 0 0 0 0 0 0 0 0 0 0 0 0 0 0 0 0 0 0 0 0 0 0 0 0 0 0
0 0 0 0 0 0 0 0 0 0 0 0 0 0 0 0 0 0 0 0 0 0 0 0 0 0 0 0 0 0 0 0 0 0 0 0 0 0 0 0 0 0 0
0 0 0 0 0 0 0 0 0 0 0 0 0 0 0 0 0 0 0 0 0 0 0 0 0 0 0 0 0 0 0 0 0 0 0 0 0 0 0 0 0 0 0
0 0 0 0 0 0 0 0 0 0 0 0 0 0 0 0 0 0 0 0 0 0 0 0 0 0 0 0 0 0 0 0 0 0 0 0 0 0 0 0 0 0 0
0 0 0 0 0 0 0 0 0 0 0 0 0 0 0 0 0 0 0 0 0 0 0 0 0 0 0 0 0 0 0 0 0 0 0 0 0 0 0 0 0 0 0
0 0 0 0 0 0 0 0 0 0 0 0 0 0 0 0 0 0 0 0 0 0 0 0 0 0 0 0 0 0 0 0 0 0 0 0 0 0 0 0 0 0 0
0 0 0 0 0 0 0 0 0 0 0 0 0 0 0 0 0 0 0 0 0 0 0 0 0 0 0 0 0 0 0 0 0 0 0 0 0 0 0 0 0 0 0
0 0 0 0 0 0 0 0 0 0 0 0 0 0 0 0 0 0 0 0 0 0 0 0 0 0 0 0 0 0 0 0 0 0 0 0 0 0 0 0 0 0 0
0 0 0 0 0 0 0 0 0 0 0 0 0 0 0 0 0 0 0 0 0 0 0 0 0 0 0 0 0 0 0 0 0 0 0 0 0 0 0 0 0 0 0
Wind_Speed
6 7 9 7 8 8 8 8 8 7 7 6 6 5 4 4 4 3 3 2 2 2 2 2 2 3 3 3 3 3 3 4 4 4 4 3 3 3 3 3 3 4 8
8 8 9 8 8 8 8 8 7 7 6 6 5 5 4 4 3 2 2 1 1 1 1 1 2 2 2 2 2 2 2 3 3 3 2 2 3 3 3 3 5 6 6
9 9 9 8 8 8 8 8 8 7 7 6 6 5 5 4 3 2 2 1 1 1 1 1 2 2 2 2 2 2 2 2 2 2 4 2 4 4 2 3 3 4 5
8 8 8 9 8 8 8 8 7 7 7 6 6 5 5 4 4 3 3 2 2 2 2 2 2 2 3 3 3 3 2 2 2 4 4 1 1 5 2 2 2 3 4
8 8 9 8 8 8 8 8 7 7 6 5 5 5 5 4 4 4 4 4 3 3 3 3 3 3 3 3 3 3 3 2 3 7 2 2 1 4 2 1 1 2 3
8 8 10 8 8 8 7 7 7 6 5 5 5 5 4 4 4 4 4 4 4 4 4 4 4 4 3 4 4 4 4 3 7 3 2 2 1 3 2 1 1 1 2
9 8 9 8 7 7 7 7 6 6 5 5 5 5 5 4 4 4 4 5 4 4 4 4 4 4 4 4 5 4 4 4 7 3 3 2 2 2 2 1 1 0 1
8 7 8 9 6 6 6 6 6 5 5 5 5 5 4 4 5 5 5 5 5 4 4 4 5 4 4 4 5 5 5 7 6 4 3 2 3 1 2 1 1 1 1
7 6 5 7 7 6 5 5 5 4 4 4 4 4 4 5 5 5 5 5 5 5 5 5 5 5 5 5 5 5 5 6 8 5 4 2 2 2 2 2 2 2 1
6 6 5 4 4 4 5 6 4 4 4 4 4 4 4 2 1 2 4 4 5 5 5 5 5 5 5 4 5 5 5 7 8 6 4 1 2 3 3 2 2 2 2
6 5 5 4 3 3 2 4 3 3 2 1 1 2 3 3 4 2 5 5 5 5 5 5 5 5 6 5 5 4 6 5 5 5 3 4 1 4 4 3 3 3 3
7 6 4 4 3 2 1 2 0 0 1 2 3 3 3 3 3 5 2 2 3 4 4 3 4 6 8 4 4 6 4 5 5 4 1 3 3 4 4 4 4 4 4
6 5 4 3 3 2 1 0 1 1 1 1 3 3 3 3 2 3 3 1 2 4 4 2 5 4 4 3 4 4 4 4 3 3 1 2 3 4 4 5 5 6 5
5 4 4 4 3 2 1 1 0 1 1 2 2 4 3 3 3 3 3 4 3 3 4 5 4 4 5 4 5 5 5 4 3 3 1 1 3 4 4 5 6 6 6
6 5 4 4 3 2 1 1 1 1 2 2 2 3 4 3 4 3 3 3 4 4 4 4 5 4 5 5 5 5 5 5 5 4 1 2 2 3 3 4 5 7 7
6 5 5 4 3 3 2 2 0 1 0 2 2 3 4 3 3 4 4 3 4 4 5 5 5 4 5 4 5 5 5 5 5 4 3 3 3 1 2 3 4 6 7
6 6 6 4 4 3 2 1 0 1 1 2 2 3 3 3 4 4 4 4 4 4 5 5 5 4 4 4 4 5 4 4 4 4 4 3 3 5 3 2 4 5 6
7 6 6 5 5 4 2 2 1 0 1 2 2 2 4 4 4 4 4 4 4 4 4 4 4 4 4 3 3 3 3 3 4 4 4 4 3 3 5 3 2 3 4
7 7 6 6 5 4 3 2 1 1 1 2 2 2 3 4 5 4 4 4 5 4 4 4 3 4 4 3 3 3 3 2 3 4 4 4 3 3 3 5 4 3 4
8 7 7 6 5 5 3 2 1 1 1 1 1 2 3 3 4 5 3 4 5 4 4 4 4 4 3 3 3 2 2 2 2 2 3 3 3 3 2 3 4 5 5
8 8 8 7 7 5 3 2 2 1 1 1 1 2 2 3 4 4 4 4 4 3 4 5 4 4 3 2 3 2 2 2 1 1 2 2 2 1 2 3 3 3 5
9 9 8 8 7 6 3 2 1 1 1 1 1 1 2 3 3 4 4 3 3 3 4 4 4 4 2 2 3 3 2 3 2 1 1 1 1 2 1 2 3 3 3
8 9 7 7 7 6 5 3 2 2 2 2 2 1 2 3 3 4 4 4 4 3 3 4 4 4 3 2 2 3 2 1 1 2 1 1 0 0 1 1 2 2 3
7 7 8 7 7 6 6 4 4 3 2 2 2 1 2 2 3 3 4 4 4 3 3 3 3 3 4 2 1 2 3 3 2 1 2 1 1 0 0 1 1 1 2
5 6 6 6 6 6 5 4 5 3 2 2 2 2 3 2 2 3 3 3 3 3 3 3 3 4 3 3 2 2 2 2 3 2 1 1 1 1 0 1 1 1 1
3 5 6 6 6 6 6 6 6 4 3 3 3 2 2 1 2 2 3 3 3 3 3 3 3 3 3 3 2 2 2 2 2 2 2 1 1 1 1 0 1 1 1
Wind_Direction
132 127 119 125 120 117 115 112 110 109 107 105 100 98 104 105 99 95 104 106 94 86 78 53 30 33 44 39 40 43 44 46 51 53 56 61 59 61 55 39 355 68 57
126 123 120 121 118 114 112 109 105 103 101 96 91 85 84 84 80 75 85 92 75 46 39 39 18 16 21 20 17 22 28 29 33 38 41 135 103 64 53 38 14 38 43
125 124 127 117 113 109 107 104 99 94 89 84 79 76 72 69 59 45 29 16 347 294 298 344 335 341 348 351 347 348 1 3 6 354 268 228 110 87 51 49 47 46 44
122 122 114 113 111 106 103 99 93 87 81 76 69 62 55 47 36 19 2 345 324 305 300 303 308 326 330 329 332 330 328 331 336 284 257 32 66 83 43 39 45 44 45
119 116 109 114 111 107 104 99 92 85 77 69 61 52 43 32 17 4 350 339 332 328 320 317 313 312 313 318 313 312 307 308 294 267 326 351 22 72 20 13 28 44 50
122 117 111 115 113 109 104 97 90 84 73 63 56 48 39 24 9 358 347 338 329 323 315 312 309 298 294 301 303 293 288 288 266 262 292 292 3 69 349 344 359 57 61
124 118 115 114 113 109 104 98 92 84 73 63 53 44 36 23 9 359 345 337 327 322 320 317 309 302 292 288 293 292 283 281 275 272 260 273 35 36 317 295 287 180 93
122 122 119 119 111 104 100 94 86 77 65 57 50 40 31 19 8 358 347 339 331 322 316 309 306 302 297 292 294 292 283 282 263 264 256 259 60 332 292 270 246 240 180
125 124 120 124 129 126 106 88 78 70 63 52 41 33 23 16 3 351 341 337 327 319 308 305 301 299 300 291 286 286 280 282 279 263 254 238 92 290 280 265 242 228 201
140 138 130 121 114 118 124 104 79 70 61 47 37 25 3 319 306 318 297 355 333 324 318 311 304 296 293 283 274 278 272 257 253 251 250 146 101 279 274 262 235 213 206
153 152 147 138 122 113 101 109 127 118 86 245 134 75 289 317 344 294 18 355 336 331 325 317 308 298 282 243 235 258 254 254 255 257 253 77 298 271 255 240 220 208 203
164 162 159 160 154 150 126 123 125 62 55 337 359 351 331 348 344 331 76 349 338 323 285 292 289 262 259 257 207 217 243 246 257 250 187 92 279 264 246 227 212 198 192
164 165 173 177 170 167 157 149 17 356 359 339 351 342 326 324 320 323 329 299 297 288 297 282 261 271 282 286 287 259 254 257 252 261 133 93 282 266 245 225 213 196 191
176 178 179 192 180 179 172 123 264 328 342 350 347 337 335 335 325 346 325 341 325 322 323 305 295 291 287 274 266 266 249 247 248 251 117 86 288 276 253 231 214 202 196
184 191 188 193 195 180 155 227 271 345 338 355 348 328 336 328 330 339 327 333 324 328 314 304 297 308 294 288 277 269 259 247 247 241 173 148 277 284 261 235 213 203 198
194 190 177 189 189 201 193 209 325 344 353 334 345 342 337 335 330 326 324 331 328 328 330 311 303 300 283 284 279 274 269 253 246 235 233 186 189 242 266 236 216 204 197
193 189 178 184 190 199 214 233 278 299 334 345 350 336 339 339 327 326 327 328 333 325 315 312 312 297 285 276 265 266 259 255 255 240 230 232 196 177 181 222 217 203 196
194 188 180 183 188 186 199 223 224 276 332 337 344 337 335 335 335 330 327 329 327 319 315 314 308 298 287 285 280 265 249 234 244 243 231 219 226 209 164 148 196 196 201
197 193 186 185 186 180 182 196 221 261 308 322 336 346 332 337 332 330 328 325 324 321 321 318 323 308 304 302 283 259 260 249 245 240 234 224 208 216 195 153 172 184 196
197 195 186 180 187 172 176 195 188 227 265 317 337 349 337 330 335 330 319 326 328 326 326 322 319 308 300 288 280 268 253 250 235 240 245 227 224 215 216 197 187 173 172
194 195 187 186 178 177 176 199 212 208 244 278 321 342 322 323 328 329 321 332 327 331 329 327 322 310 300 304 283 252 218 223 242 215 248 242 200 198 213 205 208 202 173
192 195 190 189 183 183 182 194 213 243 271 308 285 284 308 320 325 322 323 317 321 319 323 329 327 315 314 301 296 281 235 187 199 192 217 235 216 170 216 223 207 202 212
196 193 192 189 183 185 183 183 182 191 231 219 231 267 301 312 319 322 324 319 322 319 334 328 324 322 316 310 311 302 293 275 186 174 184 213 161 154 210 251 237 211 200
195 192 194 188 188 185 187 200 209 237 267 296 298 284 274 289 313 314 313 313 319 325 327 323 338 317 305 305 297 289 306 329 281 192 176 184 172 157 309 275 271 239 225
185 186 192 185 188 187 195 197 223 241 267 277 273 267 285 297 300 305 307 308 314 320 325 328 330 322 313 312 312 300 291 277 275 281 220 191 178 158 102 294 275 271 252
167 177 182 185 186 186 198 208 223 242 253 263 264 278 278 276 283 294 294 298 306 317 320 322 319 318 318 320 310 306 307 304 310 290 261 222 192 129 140 294 281 268 263